GW7938 Weather Reports


time (UTC)temp
C
wind
direction
speed
KPH
gust
KPH
rain 1hr
cm
rain 24hr
cm
rain mn
cm
humidity
%
barometer
mb
20260901181527 19 212 3.2 9.7 0.00 0.00 0.00 66 1019.6
20260901180525 19 218 6.4 14.5 0.00 0.00 0.00 65 1019.8
20260901171023 20 196 6.4 17.7 0.00 0.00 0.00 62 1019.6
20260901170021 20 224 6.4 14.5 0.00 0.00 0.00 63 1019.6
20260901165019 20 188 6.4 14.5 0.00 0.00 0.00 62 1019.5
20260901164021 21 220 8.0 17.7 0.00 0.00 0.00 61 1019.5
20260901162533 21 226 6.4 12.9 0.00 0.00 0.00 59 1019.5
20260901161531 21 215 6.4 6.4 0.00 0.00 0.00 60 1019.5
20260901154531 22 232 4.8 9.7 0.00 0.00 0.00 60 1019.6
20260901153549 21 239 9.7 17.7 0.00 0.00 0.00 61 1019.6
20260901152545 21 249 6.4 14.5 0.00 0.00 0.00 61 1019.7
20260901151523 21 243 6.4 14.5 0.00 0.00 0.00 62 1019.7
20260901150542 21 215 4.8 11.3 0.00 0.00 0.00 63 1019.8
20260901145520 21 238 6.4 14.5 0.00 0.00 0.00 61 1019.9
20260901144518 21 219 6.4 14.5 0.00 0.00 0.00 60 1019.8
20260901143516 21 214 6.4 17.7 0.00 0.00 0.00 60 1019.8
20260901142534 21 234 6.4 14.5 0.00 0.00 0.00 61 1020.0
20260901141532 21 226 4.8 9.7 0.00 0.00 0.00 63 1020.1
20260901141018 22 225 8.0 14.5 0.00 0.00 0.00 60 1020.2
20260901140016 22 239 9.7 20.9 0.00 0.00 0.00 55 1020.0
20260901135034 22 216 9.7 19.3 0.00 0.00 0.00 53 1020.0
20260901134033 22 205 9.7 17.7 0.00 0.00 0.00 53 1020.0
20260901133031 22 226 6.4 16.1 0.00 0.00 0.00 52 1019.8
20260901132029 22 206 8.0 17.7 0.00 0.00 0.00 53 1020.0
20260901131027 22 206 8.0 20.9 0.00 0.00 0.00 53 1020.1
20260901130035 22 232 8.0 19.3 0.00 0.00 0.00 55 1020.2
20260901125034 22 235 8.0 17.7 0.00 0.00 0.00 57 1020.1
20260901124031 22 204 8.0 19.3 0.00 0.00 0.00 58 1020.1
20260901123050 22 225 9.7 19.3 0.00 0.00 0.00 57 1020.1
20260901122048 22 224 9.7 14.5 0.00 0.00 0.00 58 1020.2
20260901121521 22 214 6.4 14.5 0.00 0.00 0.00 58 1020.3
20260901120519 22 218 8.0 12.9 0.00 0.00 0.00 58 1020.2
20260901115517 22 193 8.0 17.7 0.00 0.00 0.00 58 1020.1
20260901114516 21 223 8.0 17.7 0.00 0.00 0.00 60 1020.1
20260901113554 21 211 9.7 14.5 0.00 0.00 0.00 61 1020.0
20260901113035 21 220 6.4 14.5 0.00 0.00 0.00 60 1020.1
20260901112033 22 216 6.4 12.9 0.00 0.00 0.00 56 1020.2
20260901111019 22 226 6.4 11.3 0.00 0.00 0.00 59 1020.3
20260901110521 21 214 3.2 9.7 0.00 0.00 0.00 59 1020.3
20260901110033 21 247 4.8 11.3 0.00 0.00 0.00 59 1020.3
20260901105031 22 237 8.0 12.9 0.00 0.00 0.00 59 1020.3
20260901104049 21 217 6.4 16.1 0.00 0.00 0.00 60 1020.4
20260901103028 21 260 6.4 14.5 0.00 0.00 0.00 63 1020.6
20260901102106 21 246 3.2 8.0 0.00 0.00 0.00 62 1020.7
20260901101529 21 223 8.0 12.9 0.00 0.00 0.00 62 1020.6
20260901101030 22 189 9.7 9.7 0.00 0.00 0.00 60 1020.6
20260901100518 22 230 6.4 11.3 0.00 0.00 0.00 60 1020.7
20260901095517 22 226 4.8 8.0 0.00 0.00 0.00 61 1020.7
20260901094535 21 233 6.4 9.7 0.00 0.00 0.00 63 1020.7
20260901093614 21 181 8.0 12.9 0.00 0.00 0.00 63 1020.7
20260901092533 20 178 6.4 12.9 0.00 0.00 0.00 65 1020.9
20260901091552 20 204 4.8 9.7 0.00 0.00 0.00 64 1020.8
20260901090530 20 215 6.4 12.9 0.00 0.00 0.00 65 1020.8
20260901085548 20 204 4.8 8.0 0.00 0.00 0.00 67 1020.6
20260901084528 20 220 1.6 6.4 0.00 0.00 0.00 71 1020.7
20260901083536 19 223 3.2 11.3 0.00 0.00 0.00 72 1020.8
20260901082532 18 152 3.2 4.8 0.00 0.00 0.00 75 1020.9
20260901081531 17 173 6.4 11.3 0.00 0.00 0.00 79 1020.8
20260901080529 15 38 3.2 6.4 0.00 0.00 0.00 87 1020.9
20260901075527 15 344 3.2 3.2 0.00 0.00 0.00 88 1020.7
20260901074525 15 61 0.0 3.2 0.00 0.00 0.00 84 1020.6
20260901073523 15 74 1.6 3.2 0.00 0.00 0.00 81 1020.6
20260901072522 16 39 1.6 4.8 0.00 0.00 0.00 79 1020.7
20260901071520 15 45 4.8 8.0 0.00 0.00 0.00 81 1020.5
20260901070538 14 132 1.6 4.8 0.00 0.00 0.00 81 1020.6
20260901065516 14 86 3.2 6.4 0.00 0.00 0.00 81 1020.5
20260901064534 13 55 3.2 3.2 0.00 0.00 0.00 83 1020.4
20260901063532 12 50 4.8 9.7 0.00 0.00 0.00 84 1020.3
20260901062531 12 47 6.4 11.3 0.00 0.00 0.00 86 1020.2
20260901061528 10 52 3.2 4.8 0.00 0.00 0.00 92 1020.2
20260901060527 10 84 1.6 4.8 0.00 0.00 0.00 93 1020.1
20260901055525 10 58 3.2 4.8 0.00 0.00 0.00 92 1020.2
20260901054523 9 46 1.6 4.8 0.00 0.00 0.00 92 1020.0
20260901053541 9 60 3.2 4.8 0.00 0.00 0.00 92 1019.9